Location: ??????
(38.0677°N, 22.9870°E)
Time: 09:36:46
(UTC+00:00)

Cosmos 2219 Rocket - Pass Details

Date: 23 May 2024
Orbit: 826 x 847 km, 71.0° (Epoch: 23 June)

Event Time Altitude Azimuth Distance (km) Brightness Sun altitude
Rises 01:52:58 0° 337° (NNW) 3,398 5.6 -13.6°
Reaches altitude 10° 01:55:24 10° 336° (NNW) 2,463 4.8 -13.3°
Maximum altitude 02:01:04 85° 249° (WSW) 851 2.2 -12.4°
Drops below altitude 10° 02:06:43 10° 162° (SSE) 2,458 4.4 -11.5°
Sets 02:09:09 0° 161° (SSE) 3,390 5.1 -11.2°
